Theta_e
319 318 317 317 315 315 315 315 314 315 315 315 314 314 313 312 314 312 310 311 312 311 311 310 310 310 306 298 297 307 311 309 311 311 306 306 305 305 300 304 307 305 308 310 310 310 310
320 318 317 317 315 314 314 314 314 314 315 315 315 314 312 311 311 313 311 312 311 311 310 311 310 310 301 291 305 307 307 307 307 309 306 307 306 307 303 303 305 308 307 308 310 309 310
321 319 317 316 315 315 315 314 315 314 314 315 314 313 312 311 311 310 312 311 312 311 310 310 309 307 299 294 305 307 307 305 308 309 304 308 310 305 306 302 307 306 303 305 306 307 305
322 319 317 316 316 314 314 314 315 315 314 314 314 313 312 311 310 309 310 312 311 311 311 310 309 305 294 305 308 305 306 305 306 311 307 311 310 307 305 307 305 301 302 296 303 307 307
323 320 317 316 315 315 314 314 315 314 313 313 314 312 311 311 309 308 309 312 312 311 310 310 304 300 292 307 300 304 305 302 305 306 309 311 306 305 304 299 296 298 292 295 298 307 307
324 320 318 316 315 314 314 314 314 313 313 313 312 311 311 310 309 308 309 311 308 309 306 306 304 295 298 293 300 302 306 307 303 304 301 301 296 298 299 296 287 291 293 295 296 303 304
324 320 317 315 314 314 313 313 313 313 312 312 311 311 310 310 309 308 309 304 299 296 299 293 292 293 295 300 305 301 305 303 303 300 293 297 289 290 295 296 295 295 294 294 298 304 302
324 320 317 315 314 313 312 312 312 312 311 311 310 310 310 309 308 309 307 297 296 298 292 296 295 296 299 300 294 298 306 297 296 291 295 292 288 291 298 297 295 295 292 293 297 303 302
324 320 317 315 314 312 311 311 311 311 311 310 310 309 309 308 307 306 302 298 305 303 293 294 298 297 298 301 295 294 301 298 294 292 293 289 292 295 297 295 294 294 292 293 294 300 301
323 320 316 314 313 312 310 310 310 310 310 310 309 308 308 308 302 303 299 303 306 304 288 289 293 297 299 301 293 303 303 297 294 290 293 291 296 293 296 293 295 291 297 296 296 294 289
322 319 315 313 312 311 309 310 309 309 309 308 308 308 308 306 303 300 301 305 305 301 279 291 293 305 301 295 296 296 304 299 292 292 293 290 292 293 294 294 296 292 297 296 295 292 291
322 318 314 312 311 310 309 309 309 308 308 308 308 308 306 303 305 304 305 305 302 286 278 288 294 292 292 294 295 298 298 302 300 294 293 294 298 297 296 298 297 297 295 294 294 292 285
320 317 313 311 310 309 309 308 308 308 308 308 308 308 305 306 301 306 306 301 286 282 289 288 290 291 290 290 292 294 293 291 289 285 285 292 293 298 298 294 296 296 293 285 283 283 283
319 315 312 311 309 309 308 308 308 308 308 307 306 306 306 306 307 306 303 292 282 285 288 295 293 293 289 291 291 292 289 289 293 292 288 285 283 293 297 296 292 293 292 286 278 280 283
317 314 311 310 309 309 307 307 308 308 308 306 305 306 305 306 307 306 297 287 285 287 293 291 293 288 289 292 291 291 290 290 292 293 289 286 284 295 296 296 296 292 289 290 285 284 285
316 313 311 310 309 308 307 307 307 307 307 306 304 303 303 307 307 302 294 285 288 291 294 294 287 290 286 289 288 289 289 293 291 295 295 291 285 293 294 297 296 294 295 286 289 280 278
315 312 310 309 308 307 306 306 306 307 305 304 303 298 304 306 306 296 288 287 290 296 296 291 289 288 288 289 291 289 289 292 295 294 295 292 291 288 295 292 291 291 290 290 291 288 282
314 311 310 309 307 307 306 306 306 306 304 303 301 293 305 305 294 294 290 291 295 295 296 294 295 292 290 291 289 288 289 292 298 295 289 293 292 286 288 294 297 295 293 293 286 284 286
313 311 310 308 307 306 306 305 305 304 304 300 297 295 303 303 290 290 291 292 294 294 293 292 292 292 292 291 288 290 291 296 297 295 292 294 289 283 284 289 293 292 294 293 291 290 285
312 310 309 308 307 306 305 305 304 303 304 301 296 289 294 298 296 290 290 290 291 296 294 293 292 293 291 290 291 289 290 294 297 297 297 297 289 287 284 287 291 288 291 293 291 286 286
311 310 309 307 307 306 305 304 303 302 304 299 293 291 292 288 290 292 292 291 290 290 295 295 292 291 290 288 289 289 291 292 295 296 296 295 287 286 287 289 290 289 290 291 289 290 286
310 309 308 307 306 306 305 304 302 302 301 293 289 290 289 287 287 290 291 289 288 289 292 291 291 292 292 289 289 288 291 292 292 294 294 293 286 286 284 287 287 286 289 291 291 291 291
310 309 308 307 306 306 305 304 302 302 298 293 291 292 292 284 287 290 287 287 287 290 294 295 293 292 292 292 293 295 295 293 294 293 291 291 288 286 283 284 285 282 286 288 289 292 292
309 308 307 307 306 306 304 303 302 300 297 295 292 293 290 284 287 286 285 287 288 288 288 294 294 293 292 294 295 295 294 293 293 292 293 289 288 287 283 283 278 285 289 290 289 290 292
309 308 307 307 306 305 304 303 302 300 297 295 292 291 290 283 286 284 284 284 286 288 288 290 293 292 294 295 292 289 289 289 289 291 291 292 289 284 282 282 284 287 289 289 288 290 293
309 308 307 306 306 305 304 303 302 301 298 295 292 292 292 286 284 285 284 283 284 285 289 290 293 292 298 295 291 284 283 285 285 287 291 290 291 288 284 279 277 287 292 294 293 286 294
309 308 307 306 305 304 304 303 303 302 299 297 294 293 293 286 287 285 285 285 285 284 286 286 285 291 297 293 288 286 284 286 284 283 285 287 287 284 284 282 285 290 292 293 284 286 293
309 308 307 305 305 304 304 304 302 301 300 297 294 295 293 287 287 288 288 285 285 285 286 284 288 290 289 289 289 288 287 286 286 286 286 285 284 284 285 282 279 292 293 288 289 291 291
309 308 307 306 304 304 304 304 303 301 300 297 292 296 295 291 288 291 291 291 290 289 287 286 287 287 287 286 289 288 286 288 286 283 287 284 287 286 287 287 291 292 292 292 289 288 289
Wind_Speed
11 11 10 10 9 11 11 12 10 12 13 13 13 14 13 13 14 10 8 7 9 7 7 7 6 7 4 5 5 3 9 5 1 4 10 9 15 17 20 20 19 13 18 11 15 10 12
12 11 11 12 9 10 11 12 13 13 13 14 12 13 13 12 13 14 9 10 7 6 6 7 7 5 3 7 2 6 7 7 2 12 14 6 12 12 17 16 20 18 9 13 12 8 6
13 11 11 11 9 11 12 13 14 11 14 14 13 14 14 12 12 12 13 8 10 7 7 8 6 3 6 8 2 6 5 4 3 8 11 9 8 7 13 13 13 10 19 14 11 16 6
14 11 11 12 12 10 12 13 14 14 13 16 14 13 15 12 10 12 13 12 9 8 7 7 3 3 6 2 6 7 5 5 6 10 12 5 5 5 10 6 12 14 15 11 15 21 12
15 12 12 11 11 12 12 14 15 15 15 16 15 13 14 13 10 12 12 13 10 8 5 5 3 4 5 1 4 8 5 4 11 4 10 5 5 5 7 16 11 14 15 22 13 18 11
17 13 12 12 10 11 12 15 14 14 15 16 15 13 13 14 10 12 12 11 3 1 2 3 2 7 4 5 5 6 6 7 7 11 8 4 3 9 11 14 17 18 15 20 14 13 14
17 13 12 12 11 11 11 14 14 14 15 16 15 14 13 12 11 12 6 2 4 4 4 4 1 5 6 3 5 3 3 5 4 12 6 6 3 10 21 17 2 15 11 16 12 11 15
17 14 12 13 11 10 10 13 15 14 15 15 15 13 13 13 12 11 2 3 2 3 1 3 6 7 7 1 1 5 1 4 6 11 12 6 2 5 11 10 7 17 17 14 6 11 13
17 16 13 12 11 9 9 12 13 14 15 15 15 13 13 13 11 3 3 1 4 2 2 1 2 4 4 3 2 1 0 2 3 7 10 9 1 11 15 13 15 16 18 14 11 11 3
18 16 13 12 11 9 9 11 13 13 14 16 14 14 14 10 4 0 2 4 4 2 1 2 2 1 2 3 4 4 4 2 5 11 10 2 4 14 21 13 14 14 9 12 15 11 6
19 17 15 12 11 8 9 11 12 12 14 15 15 15 12 5 2 3 2 4 3 3 1 2 1 3 2 3 2 2 4 4 8 10 5 4 14 13 20 13 6 5 12 10 8 7 3
20 18 15 12 11 8 9 10 12 11 13 14 15 14 2 4 3 1 5 4 3 3 5 1 1 1 2 3 2 5 4 5 8 7 5 5 13 3 6 6 1 14 14 11 6 5 6
20 18 15 13 11 8 9 8 10 10 12 14 12 4 5 2 2 3 4 2 1 4 2 1 1 3 3 4 4 2 4 6 4 6 1 6 9 5 1 9 9 9 16 6 5 5 4
21 19 17 14 10 8 6 7 9 10 11 11 3 3 2 2 1 4 2 3 5 1 3 0 2 3 2 2 3 4 5 5 1 2 4 3 5 9 4 10 8 14 10 3 6 6 5
22 19 18 15 11 8 6 6 8 8 8 4 4 1 1 3 2 1 4 1 2 1 2 2 2 3 2 4 3 3 2 4 3 1 3 4 4 1 2 2 5 6 6 3 5 2 2
24 22 19 15 12 8 6 6 7 7 6 7 2 2 2 4 3 1 2 2 1 3 1 2 3 3 2 3 2 2 2 1 6 2 2 4 6 4 4 3 8 4 10 4 1 5 5
26 23 20 16 13 9 6 5 5 6 4 9 2 3 2 1 2 2 1 1 2 3 2 1 5 2 1 2 4 3 2 2 3 2 2 1 2 3 7 3 8 5 4 1 1 2 2
26 24 21 18 14 10 6 4 4 4 8 6 3 2 2 1 2 1 0 1 3 3 1 1 3 4 1 2 4 2 3 3 5 7 3 3 5 4 4 1 2 3 6 12 6 5 1
27 25 22 18 14 11 7 4 3 2 11 4 3 2 1 1 2 1 1 1 2 2 2 1 2 2 1 1 3 3 3 3 4 4 6 6 4 5 3 0 1 6 7 7 4 3 6
28 27 23 19 16 12 7 3 2 1 12 3 4 4 1 1 1 2 2 2 3 2 2 3 2 1 1 1 2 5 4 4 3 2 5 1 3 2 6 2 4 8 13 12 10 5 12
29 27 23 20 17 13 8 3 1 5 13 3 1 3 1 5 5 3 1 1 2 2 4 5 3 4 1 1 2 4 4 3 3 3 2 1 3 1 4 4 2 2 9 15 15 19 14
30 26 24 21 17 13 9 4 3 9 12 3 4 4 2 3 2 4 1 2 2 3 4 4 4 5 1 4 5 2 4 3 3 1 2 2 3 1 2 2 2 5 9 10 15 19 19
29 26 24 21 18 14 9 6 4 13 5 3 2 2 2 2 4 5 3 2 2 2 4 6 2 2 7 4 3 5 5 4 1 4 4 3 5 2 2 2 3 7 9 12 7 8 10
30 27 23 22 18 14 11 8 7 10 6 3 3 3 3 4 2 3 4 3 3 3 1 3 5 1 2 7 2 2 6 5 4 5 0 6 5 2 2 4 5 3 2 1 7 7 9
30 26 25 23 20 16 13 12 11 10 9 3 3 2 3 6 5 6 6 3 6 3 2 3 4 4 6 3 3 4 3 4 4 4 2 2 3 3 2 3 5 4 2 1 1 5 3
32 28 26 23 21 17 15 14 12 12 12 6 4 1 3 8 3 2 4 1 4 3 3 1 2 4 2 2 2 4 4 2 3 3 3 2 4 1 2 1 2 3 2 1 2 5 11
32 28 26 24 22 19 17 14 12 10 9 5 4 0 4 6 2 2 2 2 2 2 3 1 5 5 6 1 2 1 2 1 4 3 3 3 2 5 4 3 3 3 4 2 4 4 12
33 29 26 26 23 21 17 15 15 17 8 4 4 2 2 5 4 2 1 3 3 1 2 3 3 1 2 3 1 1 1 2 1 2 1 3 3 2 2 4 3 9 2 4 5 7 10
33 29 27 25 24 21 18 16 15 13 11 4 5 3 4 5 6 2 4 4 4 2 2 3 3 3 2 1 1 1 3 3 3 3 2 2 3 3 4 3 5 7 2 5 7 10 11
Wind_Direction
304 308 314 319 335 329 335 334 342 330 336 335 339 340 342 337 335 337 331 335 332 348 342 338 335 331 303 250 266 13 330 323 327 125 223 249 199 198 198 193 189 200 199 211 202 207 210
294 297 302 305 320 321 326 327 327 327 331 335 337 337 335 337 335 335 328 319 314 318 319 321 328 328 279 268 79 316 326 306 155 179 204 250 203 197 195 190 193 193 166 185 187 176 195
271 281 292 295 305 313 318 322 318 323 329 333 333 336 332 339 327 324 319 311 304 305 293 295 312 291 262 268 297 325 298 267 238 171 213 245 256 199 163 175 197 178 190 190 186 203 244
263 264 275 286 295 301 309 312 313 324 328 326 325 333 329 328 325 317 313 315 296 295 292 276 324 279 271 279 280 287 288 247 225 156 203 265 289 238 188 156 156 173 195 183 182 193 202
251 250 255 263 281 296 305 310 319 324 331 323 331 332 331 325 328 320 313 301 306 284 269 259 247 271 278 285 305 318 258 244 178 164 184 97 353 189 156 166 155 177 190 203 167 196 159
244 239 250 264 271 285 300 307 317 321 324 323 328 328 321 323 330 321 308 309 285 214 115 182 232 262 221 345 332 298 268 244 197 155 167 117 330 174 171 176 183 181 200 191 180 196 204
234 224 246 257 267 281 300 308 320 322 323 321 325 328 321 327 330 317 313 246 192 168 206 246 347 282 285 351 282 245 311 187 133 158 178 89 205 168 177 189 167 189 189 188 175 168 194
224 216 220 247 259 275 297 311 317 323 324 321 323 328 321 326 321 313 280 260 42 64 284 225 255 260 273 223 279 331 101 203 186 153 119 107 189 250 185 172 176 171 186 182 137 173 204
210 211 216 237 257 271 295 310 313 321 322 319 320 322 322 314 318 255 235 211 141 195 256 190 268 286 304 237 71 230 298 66 186 127 156 144 77 210 166 162 166 184 182 169 142 156 178
203 205 208 228 247 263 290 306 310 321 321 317 318 319 312 314 275 277 209 145 137 242 249 86 171 215 248 258 76 65 45 16 73 108 110 73 217 202 174 147 160 172 185 155 147 166 185
199 200 203 216 237 255 285 301 306 328 321 314 318 313 311 265 321 220 75 154 163 219 258 45 35 342 325 14 68 42 173 197 140 131 136 192 168 198 163 153 169 117 171 162 168 192 221
199 196 198 205 230 249 278 303 313 325 315 324 324 321 263 182 223 276 154 177 233 230 50 286 105 90 88 34 144 144 122 84 114 149 98 109 167 183 117 129 6 137 127 124 136 191 240
192 193 191 203 216 243 273 308 313 328 327 332 344 352 152 197 151 154 176 234 219 30 222 121 147 177 193 187 120 120 104 121 145 131 274 113 141 147 212 133 148 172 152 131 170 200 236
193 187 186 200 206 234 272 298 312 329 334 343 355 113 71 313 280 161 238 237 65 161 277 45 214 157 97 100 63 99 149 130 29 48 128 182 137 164 165 179 177 183 189 175 179 194 183
188 188 185 190 198 222 251 287 311 330 342 25 139 124 24 28 100 308 267 24 86 197 29 296 238 352 105 128 128 151 154 127 117 199 168 163 128 27 75 137 203 172 203 17 99 83 232
183 185 183 185 192 201 235 280 309 324 346 150 181 175 40 328 304 272 263 99 178 228 284 212 350 357 20 99 102 145 145 14 131 160 252 121 104 168 153 167 58 234 142 167 94 176 219
178 181 178 181 187 187 221 268 304 325 21 144 187 145 35 350 253 253 335 76 278 240 246 18 45 12 70 55 74 93 74 63 111 100 27 228 113 81 186 220 182 140 183 97 272 301 291
172 179 177 177 179 181 203 250 290 336 122 142 165 165 79 298 262 245 238 187 283 314 78 117 87 41 109 75 82 73 98 75 131 148 167 240 117 113 91 97 281 230 224 216 229 185 240
174 175 176 173 172 175 184 230 285 305 177 149 133 107 109 292 243 178 253 218 260 332 25 110 126 251 342 173 108 116 90 36 161 200 190 178 140 117 110 41 213 214 195 208 197 28 210
173 172 173 170 168 166 173 212 307 267 162 146 163 137 133 226 293 258 183 82 136 35 48 44 14 281 203 94 31 132 110 67 172 94 73 92 102 240 203 97 155 204 203 202 203 224 244
173 170 171 166 163 162 168 185 55 153 159 171 321 128 80 168 207 195 163 83 116 88 25 28 90 6 4 96 103 110 103 100 67 356 71 24 110 99 89 98 140 225 216 214 216 234 246
169 170 167 162 160 159 166 160 115 159 146 102 162 162 145 109 178 191 56 99 96 55 6 51 84 34 96 80 9 85 144 165 188 147 86 50 109 122 76 41 256 258 240 240 238 247 248
167 167 164 159 157 159 157 145 117 170 160 139 129 89 244 132 169 185 121 120 116 305 99 65 330 131 64 46 353 341 319 351 104 152 131 140 140 154 168 304 265 248 244 228 237 255 260
164 163 163 158 155 158 155 139 107 158 187 114 135 131 179 118 173 114 131 113 125 73 35 16 27 32 70 310 226 189 79 82 84 62 353 154 135 134 154 224 227 81 202 216 230 265 249
159 164 163 158 155 158 148 138 100 121 148 109 121 151 137 112 121 119 111 113 122 112 35 355 32 0 321 242 185 151 130 163 88 35 24 281 143 102 221 230 320 104 104 102 2 73 70
155 164 163 159 152 153 145 146 131 107 101 87 78 24 96 132 116 95 111 35 123 121 149 5 18 308 310 284 226 185 172 119 159 136 47 91 98 224 180 242 258 83 98 143 225 165 20
154 162 162 156 151 150 140 141 147 134 110 107 90 339 95 106 115 206 123 124 120 127 102 359 348 7 346 350 211 228 138 140 167 185 160 171 189 223 202 248 272 8 351 171 235 52 350
154 160 161 153 150 148 143 138 131 127 115 92 96 17 93 94 81 56 91 130 131 171 128 52 193 112 24 218 233 120 176 82 179 71 114 216 215 210 215 233 233 7 153 315 25 348 335
154 159 157 150 151 146 144 141 134 134 119 108 98 66 54 76 95 60 69 35 26 33 113 59 40 65 103 212 100 147 167 185 172 153 156 204 341 346 257 33 56 355 0 87 1 328 325